FW4286 Weather Reports


time (UTC)temp
C
wind
direction
speed
KPH
gust
KPH
rain 1hr
cm
rain 24hr
cm
rain mn
cm
humidity
%
barometer
mb
20260503050457 7 136 0.0 1.6 0.00 1.09 0.00 92 1015.7
20260503045959 7 136 0.0 1.6 0.00 1.09 0.00 92 1015.8
20260503045456 7 136 0.0 0.0 0.00 1.09 0.00 92 1015.8
20260503044956 7 136 0.0 3.2 0.00 1.09 0.00 92 1015.8
20260503044456 7 136 0.0 3.2 0.00 1.09 0.00 92 1015.9
20260503043956 7 136 0.0 0.0 0.00 1.09 0.00 92 1015.9
20260503043455 8 136 0.0 0.0 0.00 1.09 0.00 92 1015.9
20260503042956 8 136 0.0 0.0 0.00 1.09 0.00 92 1015.9
20260503042455 8 136 0.0 0.0 0.00 1.09 0.00 92 1015.8
20260503041957 8 136 0.0 0.0 0.00 1.09 0.00 91 1015.8
20260503041456 8 136 0.0 0.0 0.00 1.09 0.00 91 1015.7
20260503040955 8 136 0.0 0.0 0.00 1.09 0.00 91 1015.6
20260503040455 8 136 0.0 0.0 0.00 1.09 0.00 92 1015.6
20260503035500 8 136 0.0 0.0 0.00 1.09 1.09 92 1015.5
20260503034958 8 136 0.0 0.0 0.00 1.09 1.09 92 1015.3
20260503034458 8 136 0.0 0.0 0.00 1.09 1.09 91 1015.4
20260503033458 8 136 0.0 1.6 0.00 1.09 1.09 92 1015.4
20260503032958 8 136 0.0 0.0 0.00 1.09 1.09 92 1015.3
20260503032458 8 136 0.0 0.0 0.00 1.09 1.09 92 1015.3
20260503031958 8 136 0.0 0.0 0.00 1.09 1.09 92 1015.2
20260503031458 8 136 0.0 0.0 0.00 1.09 1.09 92 1015.3
20260503030958 8 136 0.0 1.6 0.00 1.09 1.09 92 1015.3
20260503030459 9 136 0.0 1.6 0.00 1.09 1.09 92 1015.2
20260503030002 9 136 0.0 1.6 0.00 1.09 1.09 91 1015.1
20260503025459 9 136 0.0 3.2 0.00 1.09 1.09 92 1015.0
20260503024959 9 136 0.0 4.8 0.00 1.09 1.09 91 1015.0
20260503023959 9 246 0.0 0.0 0.00 1.09 1.09 91 1015.0
20260503023459 9 246 0.0 0.0 0.00 1.09 1.09 91 1015.0
20260503022958 9 246 0.0 0.0 0.00 1.09 1.09 91 1015.0
20260503022459 9 246 0.0 0.0 0.00 1.09 1.09 91 1015.0
20260503021959 10 246 0.0 0.0 0.00 1.09 1.09 91 1015.0
20260503020458 10 246 0.0 0.0 0.00 1.09 1.09 90 1015.2
20260503020002 10 246 0.0 0.0 0.00 1.09 1.09 90 1015.2
20260503015459 10 246 0.0 0.0 0.00 1.09 1.09 90 1015.0
20260503014959 10 246 0.0 0.0 0.00 1.09 1.09 90 1014.9
20260503014459 10 246 0.0 0.0 0.00 1.09 1.09 90 1014.9
20260503014000 10 246 0.0 0.0 0.00 1.09 1.09 90 1014.8
20260503013459 10 246 0.0 0.0 0.00 1.09 1.09 89 1014.8
20260503012959 10 246 0.0 0.0 0.00 1.09 1.09 89 1014.8
20260503012500 10 246 0.0 0.0 0.00 1.09 1.09 89 1014.6
20260503012000 10 246 0.0 0.0 0.00 1.09 1.09 89 1014.6
20260503011459 11 246 0.0 0.0 0.00 1.09 1.09 89 1014.3
20260503010958 11 246 0.0 0.0 0.00 1.09 1.09 90 1014.3
20260503010458 11 246 0.0 1.6 0.00 1.09 1.09 90 1014.2
20260503010000 11 246 0.0 1.6 0.00 1.09 1.09 90 1014.0
20260503005457 11 246 0.0 3.2 0.00 1.09 1.09 90 1013.9
20260503004957 11 246 0.0 3.2 0.00 1.09 1.09 90 1013.9
20260503004458 11 246 1.6 3.2 0.00 1.09 1.09 90 1013.8
20260503003958 11 246 0.0 1.6 0.00 1.09 1.09 89 1013.7
20260503003457 11 246 0.0 1.6 0.00 1.09 1.09 89 1013.7
20260503002957 11 246 0.0 1.6 0.00 1.09 1.09 89 1013.7
20260503002458 11 246 0.0 1.6 0.00 1.09 1.09 89 1013.7
20260503001457 11 252 0.0 1.6 0.00 1.09 1.09 89 1013.5
20260503000958 11 133 0.0 0.0 0.00 1.09 1.09 89 1013.4
20260503000458 11 133 0.0 0.0 0.00 1.09 1.09 89 1013.5
20260502235457 11 133 0.0 3.2 0.00 1.09 1.09 89 1013.4
20260502234957 11 133 1.6 3.2 0.00 1.09 1.09 89 1013.5
20260502234457 11 133 0.0 0.0 0.00 1.09 1.09 89 1013.4
20260502233958 11 133 0.0 1.6 0.00 1.09 1.09 88 1013.3
20260502233458 11 133 0.0 1.6 0.00 1.09 1.09 88 1013.2
20260502232958 11 133 0.0 3.2 0.00 1.09 1.09 88 1013.1
20260502232457 11 133 0.0 3.2 0.00 1.09 1.09 88 1013.0
20260502230958 11 146 1.6 4.8 0.00 1.09 1.09 87 1013.1
20260502224958 11 167 3.2 6.4 0.00 1.09 1.09 85 1013.1
20260502224458 11 12 3.2 4.8 0.00 1.09 1.09 85 1013.1
20260502223958 11 23 3.2 4.8 0.00 1.09 1.09 85 1013.1
20260502223458 11 79 1.6 3.2 0.00 1.09 1.09 86 1013.0
20260502222958 11 113 1.6 4.8 0.00 1.09 1.09 85 1013.0
20260502222458 11 38 3.2 4.8 0.00 1.09 1.09 85 1013.0
20260502220957 11 31 3.2 6.4 0.00 1.09 1.09 85 1012.8
20260502220459 11 11 3.2 6.4 0.00 1.09 1.09 85 1013.0
20260502220003 11 318 3.2 6.4 0.00 1.09 1.09 84 1013.0
20260502215457 11 54 1.6 9.7 0.00 1.09 1.09 85 1012.9
20260502214958 11 17 4.8 9.7 0.00 1.09 1.09 85 1012.8
20260502213957 11 355 6.4 8.0 0.00 1.09 1.09 85 1012.8
20260502212957 11 59 3.2 9.7 0.03 1.09 1.09 86 1012.8
20260502212457 11 115 3.2 9.7 0.03 1.09 1.09 86 1012.9
20260502211957 11 344 4.8 9.7 0.03 1.09 1.09 86 1012.9
20260502210958 11 326 4.8 8.0 0.03 1.09 1.09 86 1012.9
20260502210000 11 30 3.2 8.0 0.03 1.09 1.09 88 1012.9
20260502204958 11 39 4.8 9.7 0.03 1.09 1.09 88 1012.9
20260502204458 11 355 3.2 9.7 0.03 1.09 1.09 88 1012.8
20260502203957 11 36 3.2 8.0 0.03 1.09 1.09 89 1012.9
20260502203457 11 33 4.8 8.0 0.00 1.07 1.07 89 1012.9
20260502202957 11 27 3.2 8.0 0.00 1.07 1.07 88 1012.9
20260502202457 11 38 6.4 11.3 0.00 1.07 1.07 89 1012.9
20260502201957 11 46 3.2 11.3 0.00 1.07 1.07 89 1012.8
20260502200001 11 349 3.2 12.9 0.03 1.07 1.07 88 1013.0
20260502195458 11 343 4.8 12.9 0.05 1.07 1.07 88 1013.1
20260502194957 11 13 6.4 14.5 0.05 1.07 1.07 88 1013.2
20260502194457 11 19 8.0 16.1 0.05 1.07 1.07 87 1013.2
20260502193957 11 319 4.8 14.5 0.05 1.07 1.07 89 1013.1
20260502193457 11 60 6.4 14.5 0.05 1.07 1.07 89 1013.2
20260502192957 11 340 4.8 9.7 0.08 1.07 1.07 89 1013.2
20260502192458 11 339 4.8 9.7 0.08 1.07 1.07 90 1013.3
20260502191957 11 11 6.4 11.3 0.08 1.07 1.07 89 1013.4
20260502191458 11 333 4.8 12.9 0.05 1.04 1.04 90 1013.6
20260502190957 11 20 3.2 12.9 0.05 1.04 1.04 90 1013.6
20260502185458 11 339 4.8 9.7 0.05 1.02 1.02 90 1013.5
20260502184957 11 47 3.2 14.5 0.05 1.02 1.02 90 1013.6
20260502184457 11 5 6.4 14.5 0.05 1.02 1.02 90 1013.6
20260502183958 11 315 8.0 14.5 0.08 1.02 1.02 90 1013.5
20260502183459 11 28 6.4 16.1 0.08 1.02 1.02 90 1013.4
20260502182958 11 350 6.4 16.1 0.05 0.99 0.99 89 1013.5
20260502182459 11 360 6.4 16.1 0.05 0.99 0.99 89 1013.4
20260502181958 11 355 8.0 16.1 0.05 0.99 0.99 89 1013.5
20260502181457 11 336 3.2 6.4 0.05 0.99 0.99 90 1013.9
20260502170458 11 93 6.4 16.1 0.10 1.04 0.94 91 1013.7
20260502163956 11 5 6.4 14.5 0.15 1.02 0.91 91 1014.0
20260502163456 11 5 6.4 16.1 0.15 1.02 0.91 91 1014.3
20260502162956 11 36 6.4 16.1 0.13 0.99 0.89 91 1014.4
20260502161956 11 38 6.4 14.5 0.10 0.97 0.86 91 1014.7
20260502160956 11 13 3.2 8.0 0.10 0.94 0.84 91 1014.8
20260502160456 11 55 4.8 12.9 0.13 0.94 0.84 90 1014.7
20260502151958 11 22 6.4 19.3 0.23 0.86 0.76 92 1014.0
20260502151457 11 13 9.7 29.0 0.23 0.84 0.74 92 1014.1
20260502150956 11 331 6.4 14.5 0.25 0.84 0.74 92 1014.1
20260502150456 11 336 4.8 14.5 0.23 0.81 0.71 92 1014.2
20260502130456 11 310 6.4 9.7 0.08 0.51 0.38 90 1013.5
20260502122455 11 288 4.8 16.1 0.18 0.48 0.36 89 1013.2
20260502121956 11 5 6.4 16.1 0.18 0.46 0.33 89 1013.1
20260502120956 11 327 4.8 12.9 0.20 0.46 0.33 89 1013.1
20260502120456 11 322 6.4 12.9 0.18 0.43 0.30 89 1013.0
20260502115456 11 360 6.4 14.5 0.18 0.41 0.28 89 1013.1
20260502114956 11 344 6.4 14.5 0.20 0.41 0.28 89 1013.0
20260502114456 11 321 6.4 14.5 0.20 0.38 0.25 88 1013.0
20260502113956 11 317 4.8 12.9 0.18 0.36 0.23 88 1013.1
20260502113456 11 281 6.4 12.9 0.20 0.36 0.23 88 1013.0
20260502112457 11 343 6.4 14.5 0.18 0.30 0.18 89 1012.9
20260502111956 11 319 6.4 14.5 0.15 0.28 0.15 89 1013.1
20260502111456 11 300 4.8 9.7 0.15 0.28 0.15 89 1013.1
20260502110956 11 319 4.8 8.0 0.13 0.25 0.13 89 1013.2
20260502105958 11 309 3.2 8.0 0.10 0.23 0.10 89 1013.1
20260502105455 11 306 3.2 9.7 0.10 0.23 0.10 89 1013.1
20260502104955 11 305 4.8 9.7 0.08 0.20 0.08 89 1013.2
20260502104456 11 315 4.8 9.7 0.05 0.18 0.05 88 1013.3
20260502102955 12 284 4.8 9.7 0.03 0.15 0.03 87 1013.3
20260502102455 12 296 4.8 9.7 0.00 0.13 0.00 87 1013.2
20260502101955 12 277 3.2 8.0 0.00 0.13 0.00 87 1013.2
20260502101455 12 277 4.8 8.0 0.00 0.13 0.00 86 1013.3
20260502100955 12 313 4.8 9.7 0.00 0.13 0.00 86 1013.3
20260502100457 12 259 4.8 9.7 0.00 0.13 0.00 86 1013.2
20260502091456 11 328 3.2 6.4 0.00 0.13 0.00 89 1013.1
20260502090956 11 323 3.2 4.8 0.00 0.13 0.00 89 1013.0
20260502090457 11 333 3.2 6.4 0.00 0.13 0.00 90 1013.0
20260502071455 11 260 0.0 0.0 0.00 0.13 0.00 91 1012.7
20260502070455 11 260 0.0 0.0 0.00 0.13 0.00 91 1012.6
20260502065958 11 260 0.0 0.0 0.00 0.13 0.00 91 1012.6
20260502065455 11 260 0.0 0.0 0.00 0.13 0.00 91 1012.7
20260502064455 11 260 0.0 0.0 0.00 0.13 0.00 91 1012.8
20260502063956 11 260 0.0 0.0 0.00 0.13 0.00 91 1012.8
20260502063455 11 260 0.0 0.0 0.00 0.13 0.00 91 1012.8
20260502062456 11 260 0.0 0.0 0.00 0.13 0.00 92 1012.8
20260502061955 11 260 0.0 0.0 0.00 0.13 0.00 92 1013.0
20260502061455 11 260 0.0 0.0 0.00 0.13 0.00 92 1013.1
20260502060955 11 260 0.0 0.0 0.00 0.13 0.00 92 1013.0
20260502060455 11 260 0.0 0.0 0.00 0.13 0.00 92 1013.2
20260502055958 11 260 0.0 0.0 0.00 0.13 0.00 92 1013.2
20260502055455 11 260 0.0 0.0 0.00 0.13 0.00 92 1013.3
20260502054955 11 260 0.0 0.0 0.00 0.13 0.00 92 1013.4
20260502054456 11 260 0.0 0.0 0.00 0.13 0.00 92 1013.4
20260502053956 10 260 0.0 0.0 0.00 0.13 0.00 92 1013.5
20260502053455 10 260 0.0 0.0 0.00 0.13 0.00 92 1013.4
20260502052955 10 113 0.0 0.0 0.00 0.13 0.00 92 1013.4
20260502052457 10 113 0.0 0.0 0.00 0.13 0.00 92 1013.4
20260502051956 10 113 0.0 0.0 0.00 0.13 0.00 92 1013.4
20260502051456 10 113 0.0 0.0 0.00 0.13 0.00 92 1013.6
20260502050955 10 113 0.0 0.0 0.00 0.13 0.00 92 1013.7